Torna al catalogo

IRIDIUM 33 DEB

AttivoPO
NORAD 37565·DEBRIS·🇺🇸 United States

Lanciato Sep 14, 1997 da Baikonur Cosmodrome

Loading…

Prossimi Passaggi (prossime 24 ore)

TLE

AggiornatoSource: Space-Track

Epoca: Sep 12, 2026, 05:56 UTC

1 37565U 97051YA  26255.24780131  .00001164  00000-0  27945-3 0  9996
2 37565  86.3436 250.2905 0010293 237.9572 122.0635 14.52579954698060

Traccia IRIDIUM 33 DEB in tempo reale con AllMySat

Download on the App Store